[[{"header":{"parameterUnit":"m.s-1","parameterCategory":2,"la1":30.2991,"la2":30.254,"lo1":-89.0895,"lo2":-89.0444,"dy":0.0017,"dx":0.0017,"nx":28,"ny":28,"refTime":"2025-01-27T03:00:00:Z","depth":"0","parameterNumber":2,"parameterNumberName":"U-component_of_CURRENTS"},"data":[0,0,0,0,0,0,0,0,0,0,0,0,0,0,0,0,0,0,0,0,0,0,0,0,0,0,0,0,0,0,0,0,0,0,0,0,0,0,0,0,0,0,0,0,0,0,0,0,0,0,0,0,0,0,0,0,0,0,-0.2922,-0.2923,0,-0.2967,-0.2967,-0.2968,-0.2942,-0.2941,-0.2941,-0.294,-0.2959,-0.2961,-0.2962,0,0,0,0,0,0,0,0,0,0,0,0,0,-0.2818,-0.282,-0.2922,-0.2923,-0.2924,-0.2967,-0.2967,-0.2968,-0.2943,-0.2941,-0.294,-0.2939,-0.2959,-0.296,-0.2962,0,0,0,0,0,0,0,0,0,0,0,0,0,-0.2861,-0.2821,-0.2922,-0.2919,-0.2919,-0.2967,-0.2967,-0.2968,-0.2943,-0.2941,-0.294,-0.2939,-0.2958,-0.296,-0.2962,-0.3005,0,0,-0.2969,-0.297,0,0,0,0,0,0,0,0,-0.2858,-0.2864,-0.2918,-0.2919,-0.2919,-0.295,-0.2938,-0.298,-0.2943,-0.2931,-0.294,-0.2938,-0.2957,-0.2959,-0.2967,-0.3006,-0.3007,-0.2969,-0.297,-0.2971,-0.2972,0,0,0,0,0,0,0,-0.2855,-0.2862,-0.2937,-0.2919,-0.292,-0.2916,-0.292,-0.2946,-0.2949,-0.2932,-0.2931,-0.2941,-0.2956,-0.2965,-0.2967,-0.3007,-0.2969,-0.2971,-0.2972,-0.2973,-0.3069,-0.307,0,0,0,0,0,0,-0.2857,-0.286,-0.2936,-0.2939,-0.2888,-0.2919,-0.2924,-0.2939,-0.2949,-0.295,-0.2942,-0.2939,-0.2962,-0.2965,-0.2968,-0.2971,-0.2971,-0.2973,-0.2975,-0.3068,-0.3069,-0.3071,0,0,0,0,0,0,-0.2855,-0.2864,-0.2934,-0.2902,-0.2911,-0.2923,-0.2941,-0.2941,-0.2944,-0.2958,-0.2957,-0.2944,-0.2961,-0.2965,-0.2981,-0.2974,-0.2974,-0.2976,-0.3066,-0.3068,-0.307,-0.3009,0,0,0,0,0,0,-0.2852,-0.2863,-0.2869,-0.2902,-0.2913,-0.2951,-0.2942,-0.2943,-0.2955,-0.2951,-0.296,-0.296,-0.296,-0.2978,-0.2983,-0.2977,-0.2978,-0.3065,-0.3067,-0.3069,-0.301,-0.3009,-0.3008,0,0,0,0,0,-0.2848,-0.2857,-0.287,-0.2879,-0.2923,-0.2952,-0.2956,-0.2958,-0.2956,-0.2955,-0.2962,-0.296,-0.2997,-0.298,-0.2986,-0.298,-0.3064,-0.3067,-0.3069,-0.301,-0.3009,-0.3008,0,0,0,0,0,0,-0.2808,-0.2857,-0.2871,-0.2893,-0.2919,-0.2948,-0.2949,-0.2962,-0.297,-0.2965,-0.2973,-0.2974,-0.2981,-0.3007,-0.2989,-0.3021,-0.3032,-0.3037,-0.2985,-0.2985,-0.2984,-0.2976,-0.298,0,0,0,0,0,-0.2808,-0.2827,-0.2873,-0.2886,-0.2903,-0.2931,-0.2942,-0.2951,-0.2967,-0.2969,-0.2976,-0.2993,-0.3003,-0.3012,-0.3026,-0.3051,-0.3047,-0.3057,-0.3056,-0.3055,-0.3057,-0.3034,-0.303,-0.308,-0.308,-0.308,0,0,-0.2793,-0.2824,-0.2833,-0.2879,-0.2899,-0.2924,-0.2932,-0.2951,-0.2964,-0.2973,-0.2981,-0.2986,-0.301,-0.3019,-0.3028,-0.3036,-0.3041,-0.3058,-0.3056,-0.306,-0.3036,-0.3031,-0.3026,-0.3082,-0.3082,-0.3081,0,0,-0.2777,-0.2806,-0.282,-0.2849,-0.2889,-0.2912,-0.292,-0.2955,-0.2958,-0.2982,-0.298,-0.2979,-0.3018,-0.3012,-0.3021,-0.3036,-0.3031,-0.3054,-0.3044,-0.3021,-0.3016,-0.3011,-0.2993,-0.2987,-0.3059,-0.3059,-0.3059,0,-0.2758,-0.2789,-0.2825,-0.2852,-0.2872,-0.2908,-0.2928,-0.2946,-0.2977,-0.2981,-0.2979,-0.3005,-0.301,-0.3013,-0.301,-0.3027,-0.3022,-0.3034,-0.3014,-0.301,-0.3005,-0.2989,-0.2983,-0.3057,-0.3057,-0.3057,-0.3057,0,-0.2761,-0.2787,-0.2796,-0.2845,-0.2871,-0.289,-0.2933,-0.2949,-0.2962,-0.2978,-0.2981,-0.2984,-0.2998,-0.2998,-0.3006,-0.299,-0.2996,-0.3002,-0.3002,-0.2995,-0.298,-0.2975,-0.3053,-0.3054,-0.3055,-0.3055,0,0,-0.2704,-0.2784,-0.2783,-0.2809,-0.2869,-0.2889,-0.2917,-0.2948,-0.2961,-0.2974,-0.2977,-0.2977,-0.2975,-0.2987,-0.2988,-0.2969,-0.292,-0.2975,-0.2975,-0.2932,-0.2872,-0.2797,-0.2785,-0.2916,-0.2915,-0.2914,-0.2869,0,-0.2689,-0.2733,-0.2778,-0.281,-0.2836,-0.2886,-0.291,-0.2942,-0.2964,-0.2976,-0.2971,-0.2977,-0.2974,-0.2973,-0.295,-0.2938,-0.2906,-0.2932,-0.2909,-0.2908,-0.282,-0.2775,-0.2655,-0.2597,-0.2864,-0.2863,-0.2862,0,-0.2669,-0.2704,-0.2736,-0.2802,-0.2817,-0.284,-0.2882,-0.2913,-0.2947,-0.2963,-0.2967,-0.2974,-0.2958,-0.295,-0.2907,-0.2926,-0.2892,-0.2874,-0.2871,-0.282,-0.2823,-0.2652,-0.2578,-0.2553,-0.2854,-0.2855,-0.2855,0,-0.2599,-0.2668,-0.2688,-0.2712,-0.2794,-0.2808,-0.2845,-0.2894,-0.2919,-0.295,-0.2964,-0.2958,-0.2952,-0.2915,-0.2884,-0.2894,-0.2829,-0.2838,-0.2735,-0.2731,-0.2633,-0.262,-0.2507,-0.2782,-0.2782,-0.2782,-0.2782,0,-0.2561,-0.2574,-0.2657,-0.2668,-0.2689,-0.2764,-0.2786,-0.283,-0.2882,-0.2898,-0.2943,-0.2946,-0.294,-0.2913,-0.2877,-0.2786,-0.2819,-0.2716,-0.2703,-0.261,-0.2597,-0.2578,-0.261,-0.278,-0.278,-0.2781,-0.2781,0,-0.2475,-0.2533,-0.2561,-0.2638,-0.2658,-0.2669,-0.2749,-0.2765,-0.2837,-0.2858,-0.2867,-0.2925,-0.2891,-0.2872,-0.2816,-0.2766,-0.264,-0.2653,-0.2547,-0.2521,-0.2389,-0.2423,-0.2324,-0.2258,-0.2524,-0.2522,-0.252,0,-0.2434,-0.2438,-0.2512,-0.252,-0.2549,-0.2588,-0.261,-0.2712,-0.2739,-0.2834,-0.2828,-0.2838,-0.28,-0.2713,-0.2631,-0.2534,-0.254,-0.238,-0.2362,-0.2342,-0.2372,-0.2403,-0.2358,-0.2216,-0.2212,-0.2209,-0.2206,0,-0.2339,-0.2364,-0.2385,-0.2407,-0.2429,-0.2463,-0.251,-0.2536,-0.2649,-0.2679,-0.27,-0.2682,-0.2619,-0.2475,-0.238,-0.2314,-0.2312,-0.2303,-0.23,-0.2125,-0.2134,-0.2077,-0.2309,-0.2175,-0.2178,-0.218,-0.2182,-0.2183,-0.2245,-0.2235,-0.226,-0.2266,-0.2295,-0.2309,-0.2316,-0.2383,-0.2415,-0.245,-0.2503,-0.2448,-0.2351,-0.2191,-0.2126,-0.199,-0.2071,-0.1929,-0.1974,-0.2011,-0.1926,-0.2089,-0.1931,-0.1932,-0.1934,-0.1935,-0.1936,0,-0.2116,-0.2114,-0.2116,-0.2126,-0.2113,-0.2182,-0.222,-0.2203,-0.221,-0.2233,-0.2218,-0.2119,-0.197,-0.1915,-0.1783,-0.1692,-0.166,-0.1666,-0.1684,-0.1655,-0.1793,-0.1756,-0.1529,-0.1529,-0.1529,-0.1529,-0.1529,-0.1529,-0.2045,-0.1993,-0.1997,-0.1929,-0.1953,-0.1938,-0.195,-0.1905,-0.189,-0.1802,-0.1784,-0.175,-0.174,-0.1799,-0.1656,-0.1567,-0.1541,-0.1485,-0.1535,-0.1649,-0.1678,-0.1706,-0.1675,-0.1435,-0.1435,-0.1317,-0.1316,-0.1315]},{"header":{"parameterUnit":"m.s-1","parameterCategory":2,"la1":30.2991,"la2":30.254,"lo1":-89.0895,"lo2":-89.0444,"dy":0.0017,"dx":0.0017,"nx":28,"ny":28,"refTime":"2025-01-27T03:00:00:Z","depth":"0","parameterNumber":3,"parameterNumberName":"V-component_of_CURRENTS"},"data":[0,0,0,0,0,0,0,0,0,0,0,0,0,0,0,0,0,0,0,0,0,0,0,0,0,0,0,0,0,0,0,0,0,0,0,0,0,0,0,0,0,0,0,0,0,0,0,0,0,0,0,0,0,0,0,0,0,0,-0.0297,-0.0296,0,-0.0205,-0.0204,-0.0203,-0.0135,-0.0135,-0.0134,-0.0134,-0.0002,0.0001,0.0004,0,0,0,0,0,0,0,0,0,0,0,0,0,-0.037,-0.0369,-0.0297,-0.0296,-0.0295,-0.0205,-0.0204,-0.0203,-0.0135,-0.0135,-0.0134,-0.0134,-0.0003,0.0,0.0004,0,0,0,0,0,0,0,0,0,0,0,0,0,-0.0314,-0.0369,-0.0297,-0.0251,-0.0246,-0.0206,-0.0204,-0.0202,-0.0136,-0.0135,-0.0134,-0.0133,-0.0004,-0.0,0.0004,0.0018,0,0,0.0018,0.002,0,0,0,0,0,0,0,0,-0.0317,-0.0311,-0.0259,-0.0254,-0.0249,-0.0182,-0.0182,-0.0127,-0.0136,-0.0177,-0.0134,-0.0133,-0.006,-0.0051,-0.0034,0.0024,0.0029,0.0019,0.0022,0.0024,0.0025,0,0,0,0,0,0,0,-0.0321,-0.0314,-0.026,-0.0258,-0.0252,-0.022,-0.0212,-0.0171,-0.0122,-0.0173,-0.0168,-0.016,-0.0056,-0.0039,-0.0031,0.0031,0.0019,0.0023,0.0026,0.0027,0.0139,0.0139,0,0,0,0,0,0,-0.0337,-0.0318,-0.0262,-0.0257,-0.0283,-0.022,-0.021,-0.0203,-0.0123,-0.0111,-0.016,-0.0157,-0.0047,-0.0036,-0.0026,-0.0002,0.0023,0.0028,0.003,0.0139,0.0139,0.0139,0,0,0,0,0,0,-0.0339,-0.0333,-0.0266,-0.0286,-0.0275,-0.022,-0.0212,-0.0202,-0.0183,-0.0114,-0.0101,-0.0153,-0.0046,-0.0032,0.0004,0.0004,0.003,0.0034,0.0138,0.0139,0.0139,0.0044,0,0,0,0,0,0,-0.0342,-0.0335,-0.0338,-0.0287,-0.0275,-0.025,-0.0213,-0.0201,-0.018,-0.0174,-0.0103,-0.009,-0.0044,-0.0003,0.0009,0.0011,0.0038,0.0138,0.0138,0.0139,0.0047,0.0041,0.0036,0,0,0,0,0,-0.0345,-0.0354,-0.0339,-0.0332,-0.0281,-0.0251,-0.0242,-0.0199,-0.0181,-0.0178,-0.0132,-0.0092,0.0009,0.0,0.0014,0.0017,0.0138,0.0138,0.0139,0.0049,0.0042,0.0036,0,0,0,0,0,0,-0.0389,-0.0346,-0.0329,-0.0325,-0.0295,-0.024,-0.0235,-0.0207,-0.0168,-0.0162,-0.0097,-0.0082,-0.0051,-0.0002,-0.0013,0.0053,0.0083,0.0087,0.0011,0.0005,-0.0001,-0.0011,0.0041,0,0,0,0,0,-0.0402,-0.0397,-0.0352,-0.0351,-0.0338,-0.0289,-0.0273,-0.0244,-0.0203,-0.0185,-0.0137,-0.0081,-0.0037,-0.0007,0.0036,0.0069,0.0114,0.0085,0.008,0.0075,0.0077,0.0123,0.0121,0.0141,0.0141,0.0141,0,0,-0.0419,-0.0396,-0.0393,-0.036,-0.0333,-0.0324,-0.0277,-0.0259,-0.0248,-0.0177,-0.0152,-0.0106,-0.0036,-0.0002,0.0019,0.004,0.0094,0.0075,0.007,0.0076,0.0123,0.0121,0.0119,0.0141,0.0141,0.0141,0,0,-0.0456,-0.0432,-0.0441,-0.0421,-0.0387,-0.0354,-0.0354,-0.0304,-0.0278,-0.025,-0.0197,-0.0154,-0.0085,-0.0035,0.0,-0.0005,0.0055,0.0013,-0.0014,0.0029,0.0028,0.0027,0.0081,0.0085,0.002,0.002,0.002,0,-0.048,-0.0483,-0.044,-0.0444,-0.0435,-0.0374,-0.0384,-0.0348,-0.0294,-0.0274,-0.0253,-0.0153,-0.0098,-0.0047,-0.0046,-0.0019,0.0018,-0.0002,0.002,0.002,0.0021,0.0076,0.0083,0.0016,0.0016,0.0016,0.0017,0,-0.0519,-0.0524,-0.0529,-0.0513,-0.0496,-0.0495,-0.0443,-0.0422,-0.0384,-0.0342,-0.0292,-0.0218,-0.0154,-0.0128,-0.0087,-0.005,-0.0022,-0.0006,0.0028,0.0012,0.0073,0.0081,0.0009,0.0011,0.0012,0.0013,0,0,-0.057,-0.0561,-0.0563,-0.0573,-0.0534,-0.0527,-0.0508,-0.0472,-0.0458,-0.0394,-0.0367,-0.0285,-0.0237,-0.0194,-0.0133,-0.0086,-0.0049,-0.0047,-0.0042,-0.0008,0.0052,0.012,0.0136,-0.0037,-0.0036,-0.0036,0.0092,0,-0.0616,-0.0652,-0.0624,-0.0652,-0.0667,-0.061,-0.0599,-0.0555,-0.0503,-0.046,-0.0368,-0.032,-0.0263,-0.0233,-0.0179,-0.0081,-0.0032,-0.0085,0.0076,0.0082,0.0131,0.0147,0.0195,0.0317,0.0101,0.0102,0.0103,0,-0.0663,-0.0683,-0.0724,-0.073,-0.0729,-0.0729,-0.07,-0.068,-0.0597,-0.0555,-0.0481,-0.0404,-0.0309,-0.0269,-0.011,-0.0149,-0.0058,0.0018,0.0025,0.0129,0.0165,0.03,0.0341,0.0482,0.0116,0.0115,0.0114,0,-0.073,-0.0751,-0.0791,-0.0793,-0.0784,-0.0787,-0.0773,-0.0711,-0.0692,-0.0608,-0.0578,-0.0459,-0.0387,-0.0269,-0.0091,-0.0107,0.0087,0.0084,0.0233,0.024,0.0337,0.035,0.0523,0.0185,0.0185,0.0184,0.0184,0,-0.0793,-0.0823,-0.0828,-0.0852,-0.0893,-0.0856,-0.087,-0.0835,-0.0774,-0.0741,-0.0632,-0.0564,-0.0385,-0.0242,-0.0105,0.0109,0.0082,0.0241,0.028,0.0307,0.0315,0.0488,0.0537,0.0189,0.0188,0.0187,0.0186,0,-0.0858,-0.0861,-0.091,-0.0923,-0.0928,-0.0956,-0.0943,-0.0942,-0.0878,-0.0829,-0.0802,-0.0633,-0.0431,-0.0238,-0.0014,0.0106,0.0394,0.0366,0.0396,0.0437,0.0689,0.073,0.0956,0.1046,0.054,0.0543,0.0545,0,-0.0895,-0.0928,-0.0973,-0.1004,-0.1013,-0.104,-0.1051,-0.1002,-0.0986,-0.0854,-0.0827,-0.0622,-0.0441,-0.0082,0.0167,0.0432,0.0528,0.0613,0.059,0.0729,0.0803,0.0827,0.0887,0.0684,0.0687,0.069,0.0692,0,-0.0963,-0.0975,-0.1015,-0.1086,-0.1117,-0.1147,-0.115,-0.1147,-0.1061,-0.0969,-0.08,-0.0639,-0.0285,0.0062,0.0396,0.0551,0.073,0.0672,0.081,0.0934,0.0979,0.1075,0.0577,0.0714,0.0712,0.071,0.0709,0.0708,-0.1001,-0.1049,-0.1098,-0.1159,-0.1199,-0.1223,-0.1193,-0.1144,-0.1061,-0.0826,-0.0757,-0.0414,-0.0037,0.046,0.0632,0.0992,0.094,0.1091,0.1131,0.1145,0.1231,0.079,0.0969,0.0968,0.0968,0.0967,0.0967,0,-0.1042,-0.1091,-0.1163,-0.1225,-0.1267,-0.1267,-0.1224,-0.1101,-0.0923,-0.069,-0.0457,0.0015,0.0429,0.0785,0.1229,0.1428,0.1459,0.1525,0.1568,0.1607,0.1224,0.123,0.148,0.148,0.148,0.148,0.1479,0.1479,-0.1064,-0.1137,-0.1175,-0.1254,-0.1288,-0.1202,-0.1138,-0.0898,-0.0662,-0.0196,0.0151,0.0365,0.0746,0.137,0.1781,0.1824,0.1982,0.1984,0.2059,0.1784,0.1746,0.1709,0.1728,0.2078,0.2079,0.2434,0.2437,0.244]}],[{"header":{"parameterUnit":"m.s-1","parameterCategory":2,"la1":30.2991,"la2":30.254,"lo1":-89.0895,"lo2":-89.0444,"dy":0.0017,"dx":0.0017,"nx":28,"ny":28,"refTime":"2025-01-27T03:00:00:Z","depth":"2","parameterNumber":2,"parameterNumberName":"U-component_of_CURRENTS"},"data":[0,0,0,0,0,0,0,0,0,0,0,0,0,0,0,0,0,0,0,0,0,0,0,0,0,0,0,0,0,0,0,0,0,0,0,0,0,0,0,0,0,0,0,0,0,0,0,0,0,0,0,0,0,0,0,0,0,0,-0.2548,-0.2549,0,-0.2597,-0.2597,-0.2598,-0.2584,-0.2583,-0.2582,-0.2582,-0.2599,-0.2601,-0.2602,0,0,0,0,0,0,0,0,0,0,0,0,0,-0.2457,-0.2458,-0.2548,-0.2549,-0.255,-0.2597,-0.2597,-0.2598,-0.2584,-0.2583,-0.2582,-0.2581,-0.2599,-0.26,-0.2602,0,0,0,0,0,0,0,0,0,0,0,0,0,-0.2498,-0.2459,-0.2548,-0.255,-0.2551,-0.2597,-0.2597,-0.2598,-0.2584,-0.2583,-0.2582,-0.2581,-0.2598,-0.26,-0.2602,-0.2638,0,0,-0.2608,-0.2608,0,0,0,0,0,0,0,0,-0.2496,-0.2501,-0.2549,-0.255,-0.2551,-0.2585,-0.2572,-0.261,-0.2585,-0.257,-0.2582,-0.258,-0.2594,-0.2596,-0.2605,-0.2639,-0.2639,-0.2608,-0.2609,-0.261,-0.261,0,0,0,0,0,0,0,-0.2493,-0.2499,-0.2566,-0.255,-0.2551,-0.2553,-0.2557,-0.2579,-0.2586,-0.2571,-0.2571,-0.2579,-0.2594,-0.2604,-0.2606,-0.264,-0.2608,-0.2609,-0.2611,-0.2611,-0.2677,-0.2677,0,0,0,0,0,0,-0.2492,-0.2497,-0.2564,-0.2567,-0.2522,-0.2556,-0.256,-0.2574,-0.2586,-0.2588,-0.258,-0.2579,-0.2601,-0.2604,-0.2606,-0.2619,-0.261,-0.2611,-0.2613,-0.2676,-0.2677,-0.2677,0,0,0,0,0,0,-0.249,-0.2498,-0.2562,-0.2534,-0.2543,-0.2559,-0.2574,-0.2575,-0.2584,-0.2594,-0.2594,-0.2587,-0.26,-0.2604,-0.2624,-0.2621,-0.2612,-0.2614,-0.2675,-0.2676,-0.2677,-0.2664,0,0,0,0,0,0,-0.2487,-0.2497,-0.2504,-0.2534,-0.2544,-0.2581,-0.2575,-0.2577,-0.2593,-0.2591,-0.2601,-0.2601,-0.26,-0.2622,-0.2626,-0.2623,-0.2615,-0.2674,-0.2676,-0.2677,-0.2664,-0.2664,-0.2665,0,0,0,0,0,-0.2484,-0.2492,-0.2504,-0.2512,-0.2554,-0.2581,-0.2586,-0.2592,-0.2594,-0.2596,-0.2608,-0.2601,-0.2632,-0.2624,-0.2629,-0.2626,-0.2674,-0.2675,-0.2677,-0.2663,-0.2664,-0.2665,0,0,0,0,0,0,-0.245,-0.2493,-0.2506,-0.2526,-0.2551,-0.2579,-0.2584,-0.2598,-0.2612,-0.261,-0.2617,-0.2618,-0.2631,-0.264,-0.2632,-0.265,-0.2649,-0.2652,-0.2637,-0.2638,-0.2639,-0.263,-0.2617,0,0,0,0,0,-0.2451,-0.2467,-0.2509,-0.2522,-0.2536,-0.2565,-0.2578,-0.2589,-0.2608,-0.2612,-0.2622,-0.2634,-0.2644,-0.265,-0.266,-0.2681,-0.267,-0.2681,-0.2682,-0.2682,-0.268,-0.2663,-0.2661,-0.2682,-0.2682,-0.2682,0,0,-0.244,-0.2466,-0.2474,-0.2516,-0.2535,-0.2561,-0.2568,-0.2589,-0.2606,-0.2614,-0.2631,-0.2638,-0.2651,-0.2662,-0.2669,-0.2668,-0.2671,-0.2684,-0.2684,-0.2681,-0.2664,-0.2661,-0.2659,-0.2683,-0.2683,-0.2683,0,0,-0.2428,-0.2453,-0.2466,-0.2493,-0.2531,-0.2553,-0.2562,-0.2598,-0.2605,-0.2635,-0.2636,-0.2641,-0.2671,-0.2666,-0.2671,-0.2688,-0.2675,-0.2696,-0.2692,-0.2675,-0.2673,-0.267,-0.2649,-0.2644,-0.2696,-0.2696,-0.2696,0,-0.2414,-0.2441,-0.2471,-0.2496,-0.2516,-0.2551,-0.2572,-0.2593,-0.2628,-0.2635,-0.2636,-0.2665,-0.2668,-0.2675,-0.2675,-0.2686,-0.2677,-0.2684,-0.2673,-0.2671,-0.2669,-0.2647,-0.2643,-0.2695,-0.2695,-0.2696,-0.2696,0,-0.2417,-0.2443,-0.2451,-0.2496,-0.2521,-0.2542,-0.2583,-0.2603,-0.2622,-0.264,-0.2654,-0.2661,-0.2673,-0.2674,-0.268,-0.2671,-0.2669,-0.2673,-0.2665,-0.2665,-0.2643,-0.2639,-0.2695,-0.2695,-0.2695,-0.2695,0,0,-0.2369,-0.2441,-0.2441,-0.2466,-0.2524,-0.2544,-0.2576,-0.261,-0.2627,-0.2648,-0.2659,-0.2666,-0.2667,-0.2673,-0.2676,-0.2661,-0.2632,-0.2662,-0.2662,-0.263,-0.2592,-0.2522,-0.251,-0.2634,-0.2634,-0.2633,-0.258,0,-0.2359,-0.2401,-0.2441,-0.2476,-0.2502,-0.2549,-0.2576,-0.2611,-0.2638,-0.2657,-0.2658,-0.2671,-0.2669,-0.2673,-0.2657,-0.2649,-0.2621,-0.2646,-0.2606,-0.2605,-0.2533,-0.2503,-0.2319,-0.225,-0.2575,-0.2575,-0.2574,0,-0.2343,-0.2377,-0.2412,-0.2475,-0.2489,-0.2514,-0.2562,-0.2594,-0.2633,-0.2653,-0.2664,-0.2675,-0.2667,-0.2661,-0.2626,-0.2645,-0.2612,-0.2596,-0.2593,-0.2529,-0.2526,-0.2305,-0.2229,-0.2566,-0.2567,-0.2568,-0.2568,0,-0.2286,-0.2351,-0.2375,-0.2398,-0.2476,-0.2493,-0.253,-0.2582,-0.2608,-0.2647,-0.2665,-0.2666,-0.2666,-0.2635,-0.2606,-0.2617,-0.2559,-0.2568,-0.2468,-0.2463,-0.2297,-0.2278,-0.2518,-0.2518,-0.2518,-0.2518,-0.2518,0,-0.2256,-0.2272,-0.235,-0.2364,-0.239,-0.2458,-0.2487,-0.253,-0.2585,-0.2603,-0.2651,-0.2655,-0.266,-0.2636,-0.2601,-0.2516,-0.255,-0.2451,-0.2437,-0.2288,-0.227,-0.2545,-0.2549,-0.2516,-0.2517,-0.2517,-0.2517,0,-0.2183,-0.2239,-0.227,-0.2345,-0.2365,-0.2381,-0.2459,-0.2477,-0.2549,-0.2575,-0.2586,-0.2641,-0.261,-0.2597,-0.2547,-0.2499,-0.2434,-0.239,-0.2214,-0.218,-0.2351,-0.2356,-0.2271,-0.2268,-0.2265,-0.2263,-0.2261,0,-0.2149,-0.2158,-0.2232,-0.2243,-0.2272,-0.2315,-0.2338,-0.2434,-0.2461,-0.255,-0.2545,-0.2558,-0.2514,-0.2434,-0.2358,-0.2265,-0.2347,-0.2055,-0.2033,-0.2327,-0.2323,-0.2331,-0.2339,-0.1808,-0.1803,-0.1798,-0.1795,0,-0.207,-0.2097,-0.212,-0.2147,-0.2171,-0.2204,-0.225,-0.2268,-0.2371,-0.2393,-0.2399,-0.2374,-0.2324,-0.2148,-0.2065,-0.1995,-0.206,-0.1962,-0.2291,-0.191,-0.1889,-0.1886,-0.1909,-0.1755,-0.1759,-0.1762,-0.1764,-0.1766,-0.1991,-0.1985,-0.2013,-0.2023,-0.2053,-0.2058,-0.2026,-0.2085,-0.2093,-0.2079,-0.2171,-0.2063,-0.2057,-0.1815,-0.1723,-0.1661,-0.1804,-0.172,-0.1734,-0.1752,-0.1719,-0.1695,-0.1519,-0.1521,-0.1524,-0.1525,-0.1527,0,-0.1879,-0.1881,-0.1885,-0.1889,-0.1859,-0.1922,-0.1929,-0.1858,-0.1796,-0.1824,-0.1783,-0.1585,-0.147,-0.1471,-0.1307,-0.1286,-0.128,-0.1237,-0.1225,-0.1264,-0.1299,-0.1243,-0.0917,-0.0915,-0.0913,-0.0912,0,0,-0.1818,-0.1774,-0.1775,-0.1682,-0.1677,-0.1564,-0.1524,-0.1448,-0.1414,-0.1312,-0.1258,-0.1348,-0.1394,-0.1142,-0.1099,-0.0974,-0.1105,-0.0924,-0.1411,-0.1432,-0.1464,-0.1571,-0.1528,0,0,0,0,0]},{"header":{"parameterUnit":"m.s-1","parameterCategory":2,"la1":30.2991,"la2":30.254,"lo1":-89.0895,"lo2":-89.0444,"dy":0.0017,"dx":0.0017,"nx":28,"ny":28,"refTime":"2025-01-27T03:00:00:Z","depth":"2","parameterNumber":3,"parameterNumberName":"V-component_of_CURRENTS"},"data":[0,0,0,0,0,0,0,0,0,0,0,0,0,0,0,0,0,0,0,0,0,0,0,0,0,0,0,0,0,0,0,0,0,0,0,0,0,0,0,0,0,0,0,0,0,0,0,0,0,0,0,0,0,0,0,0,0,0,-0.0278,-0.0277,0,-0.02,-0.0199,-0.0198,-0.0139,-0.0138,-0.0138,-0.0137,-0.0031,-0.0028,-0.0026,0,0,0,0,0,0,0,0,0,0,0,0,0,-0.0334,-0.0333,-0.0278,-0.0277,-0.0276,-0.0201,-0.0199,-0.0198,-0.0139,-0.0138,-0.0138,-0.0137,-0.0032,-0.0029,-0.0026,0,0,0,0,0,0,0,0,0,0,0,0,0,-0.0288,-0.0333,-0.0278,-0.0238,-0.0234,-0.0201,-0.0199,-0.0198,-0.0139,-0.0138,-0.0137,-0.0137,-0.0032,-0.0029,-0.0025,-0.0018,0,0,-0.0015,-0.0013,0,0,0,0,0,0,0,0,-0.029,-0.0286,-0.0245,-0.0241,-0.0236,-0.0179,-0.018,-0.0137,-0.0139,-0.0174,-0.0137,-0.0136,-0.0079,-0.0071,-0.0058,-0.0013,-0.0008,-0.0014,-0.0012,-0.0011,-0.0009,0,0,0,0,0,0,0,-0.0294,-0.0288,-0.0246,-0.0244,-0.0238,-0.021,-0.0203,-0.0171,-0.013,-0.0171,-0.0166,-0.016,-0.0076,-0.0061,-0.0055,-0.0007,-0.0014,-0.0011,-0.0009,-0.0008,0.006,0.006,0,0,0,0,0,0,-0.0308,-0.0292,-0.0248,-0.0244,-0.0263,-0.021,-0.0202,-0.0197,-0.0131,-0.0121,-0.016,-0.0157,-0.0068,-0.0059,-0.0051,-0.0033,-0.0011,-0.0007,-0.0005,0.0061,0.006,0.006,0,0,0,0,0,0,-0.031,-0.0305,-0.0252,-0.0266,-0.0258,-0.021,-0.0205,-0.0196,-0.018,-0.0123,-0.0112,-0.0154,-0.0067,-0.0056,-0.0027,-0.0029,-0.0006,-0.0002,0.0061,0.0061,0.006,-0.0002,0,0,0,0,0,0,-0.0312,-0.0306,-0.031,-0.0268,-0.0258,-0.024,-0.0206,-0.0195,-0.0178,-0.0173,-0.0114,-0.0104,-0.0065,-0.0033,-0.0024,-0.0024,0.0,0.0062,0.0061,0.006,0.0001,-0.0004,-0.0008,0,0,0,0,0,-0.0314,-0.0325,-0.0311,-0.0306,-0.0264,-0.0241,-0.0233,-0.0196,-0.0179,-0.0178,-0.0138,-0.0105,-0.003,-0.003,-0.0019,-0.0018,0.0062,0.0061,0.006,0.0003,-0.0003,-0.0008,0,0,0,0,0,0,-0.0353,-0.0318,-0.0303,-0.0303,-0.0278,-0.0231,-0.0228,-0.0203,-0.0171,-0.0165,-0.0111,-0.0098,-0.0075,-0.0041,-0.0042,-0.0001,0.0022,0.0023,-0.0026,-0.0031,-0.0036,-0.0041,0.0003,0,0,0,0,0,-0.0365,-0.0363,-0.0325,-0.0327,-0.0316,-0.0274,-0.0261,-0.0236,-0.0201,-0.0186,-0.0146,-0.0104,-0.007,-0.0047,-0.0016,0.0008,0.0049,0.0016,0.0011,0.0007,0.001,0.0064,0.0064,0.0057,0.0057,0.0057,0,0,-0.0381,-0.0362,-0.0361,-0.0335,-0.0312,-0.0305,-0.0264,-0.025,-0.024,-0.018,-0.016,-0.0123,-0.007,-0.0046,-0.0032,-0.0015,0.003,0.0006,0.0002,0.0008,0.0063,0.0064,0.0064,0.0057,0.0057,0.0057,0,0,-0.0415,-0.0396,-0.0406,-0.0389,-0.0361,-0.0333,-0.0333,-0.0292,-0.0269,-0.0246,-0.0202,-0.0165,-0.0117,-0.0074,-0.0047,-0.0058,-0.0004,-0.0051,-0.0069,-0.0018,-0.0016,-0.0015,0.0033,0.004,-0.0046,-0.0046,-0.0046,0,-0.0437,-0.0441,-0.0406,-0.041,-0.0402,-0.0351,-0.0359,-0.033,-0.0284,-0.0265,-0.025,-0.0169,-0.0127,-0.0082,-0.0085,-0.0067,-0.0032,-0.0053,-0.0023,-0.0021,-0.0018,0.0031,0.0039,-0.0049,-0.0048,-0.0048,-0.0048,0,-0.0474,-0.0478,-0.0483,-0.047,-0.0456,-0.0456,-0.0412,-0.0395,-0.0362,-0.0324,-0.028,-0.0221,-0.0168,-0.0151,-0.0119,-0.008,-0.0059,-0.0043,-0.001,-0.0021,0.0031,0.004,-0.0053,-0.0052,-0.0051,-0.005,0,0,-0.0521,-0.0512,-0.0514,-0.052,-0.0488,-0.0482,-0.0466,-0.0432,-0.0417,-0.0364,-0.0335,-0.0271,-0.023,-0.0196,-0.0148,-0.0097,-0.0049,-0.0066,-0.0061,-0.002,0.0063,0.0094,0.0108,-0.0029,-0.0028,-0.0026,0.009,0,-0.0561,-0.0591,-0.0567,-0.0589,-0.06,-0.055,-0.054,-0.05,-0.0454,-0.0413,-0.0333,-0.0291,-0.0248,-0.0223,-0.0167,-0.008,-0.0027,-0.0082,0.007,0.0075,0.0102,0.0119,0.0087,0.019,0.0099,0.0101,0.0102,0,-0.0604,-0.0619,-0.0652,-0.065,-0.0648,-0.0649,-0.0618,-0.0599,-0.0523,-0.0485,-0.0418,-0.0352,-0.0266,-0.0234,-0.0083,-0.0122,-0.0037,0.0033,0.004,0.0099,0.0124,0.0188,0.0211,0.0118,0.0117,0.0116,0.0115,0,-0.066,-0.0675,-0.0706,-0.0706,-0.0694,-0.0695,-0.0682,-0.0624,-0.0605,-0.0525,-0.0498,-0.0387,-0.0326,-0.021,-0.0059,-0.0071,0.011,0.0113,0.0225,0.0228,0.0247,0.025,0.022,0.022,0.022,0.022,0.0219,0,-0.0713,-0.0736,-0.0738,-0.0757,-0.0789,-0.0753,-0.0763,-0.0729,-0.0673,-0.0647,-0.0541,-0.0487,-0.0317,-0.0189,-0.0065,0.0116,0.0111,0.0231,0.0265,0.0224,0.0223,0.0198,0.0193,0.0224,0.0223,0.0222,0.0221,0,-0.0769,-0.0769,-0.0808,-0.0815,-0.0819,-0.0842,-0.083,-0.0829,-0.0768,-0.0729,-0.0704,-0.0551,-0.0378,-0.02,0.0009,0.0113,0.0277,0.0342,0.0283,0.0308,0.0359,0.035,0.0472,0.0475,0.0477,0.0478,0.0479,0,-0.08,-0.0827,-0.0863,-0.0892,-0.0899,-0.0922,-0.0934,-0.0887,-0.0875,-0.0762,-0.0743,-0.0565,-0.0424,-0.0104,0.0114,0.0348,0.0345,0.0447,0.0422,0.0367,0.0388,0.0376,0.0365,0.0423,0.0424,0.0424,0.0425,0,-0.0857,-0.0869,-0.0902,-0.0969,-0.0999,-0.1027,-0.1034,-0.1037,-0.0964,-0.0901,-0.0775,-0.0648,-0.0337,-0.0072,0.0228,0.0358,0.0405,0.0467,0.0444,0.0358,0.0329,0.0346,0.0335,0.043,0.0429,0.0429,0.0429,0.0429,-0.0892,-0.0935,-0.098,-0.1038,-0.1079,-0.1112,-0.1126,-0.1101,-0.1059,-0.094,-0.0811,-0.0595,-0.0344,0.0089,0.0301,0.0494,0.0487,0.053,0.0524,0.0519,0.0487,0.0462,0.0582,0.0583,0.0583,0.0583,0.0583,0,-0.0932,-0.0978,-0.1044,-0.1108,-0.1159,-0.1161,-0.1174,-0.1154,-0.109,-0.0942,-0.0787,-0.0493,-0.0188,0.0072,0.0381,0.0563,0.054,0.059,0.0519,0.0513,0.0507,0.0472,0.0565,0.0565,0.0566,0.0566,0,0,-0.0953,-0.1022,-0.1058,-0.1151,-0.1196,-0.1235,-0.1236,-0.1178,-0.1072,-0.0904,-0.073,-0.0505,-0.0182,0.003,0.0261,0.0422,0.0419,0.0438,0.0433,0.0316,0.0308,0.0455,0.0392,0,0,0,0,0]}],[{"header":{"parameterUnit":"m.s-1","parameterCategory":2,"la1":30.2991,"la2":30.254,"lo1":-89.0895,"lo2":-89.0444,"dy":0.0017,"dx":0.0017,"nx":28,"ny":28,"refTime":"2025-01-27T03:00:00:Z","depth":"4","parameterNumber":2,"parameterNumberName":"U-component_of_CURRENTS"},"data":[0,0,0,0,0,0,0,0,0,0,0,0,0,0,0,0,0,0,0,0,0,0,0,0,0,0,0,0,0,0,0,0,0,0,0,0,0,0,0,0,0,0,0,0,0,0,0,0,0,0,0,0,0,0,0,0,0,0,-0.1802,-0.1803,0,-0.1883,-0.1884,-0.1885,-0.1933,-0.1933,-0.1934,-0.1934,-0.2023,-0.2025,-0.2027,0,0,0,0,0,0,0,0,0,0,0,0,0,-0.1697,-0.1698,-0.1802,-0.1803,-0.1804,-0.1883,-0.1884,-0.1885,-0.1933,-0.1933,-0.1934,-0.1934,-0.2022,-0.2024,-0.2027,0,0,0,0,0,0,0,0,0,0,0,0,0,-0.1755,-0.1699,-0.1802,-0.1838,-0.1843,-0.1883,-0.1884,-0.1885,-0.1933,-0.1933,-0.1934,-0.1934,-0.2021,-0.2024,-0.2027,-0.2037,0,0,-0.2037,-0.2038,0,0,0,0,0,0,0,0,-0.1752,-0.1759,-0.1832,-0.1836,-0.1841,-0.1899,-0.188,-0.1937,-0.1933,-0.1897,-0.1934,-0.1934,-0.1983,-0.1989,-0.2001,-0.2041,-0.2045,-0.2037,-0.2039,-0.204,-0.2041,0,0,0,0,0,0,0,-0.1748,-0.1756,-0.1833,-0.1833,-0.1839,-0.1854,-0.1862,-0.1891,-0.1936,-0.19,-0.1904,-0.1915,-0.1985,-0.1998,-0.2004,-0.2046,-0.2037,-0.204,-0.2042,-0.2043,-0.2149,-0.215,0,0,0,0,0,0,-0.174,-0.1752,-0.183,-0.1836,-0.1798,-0.1855,-0.1865,-0.1879,-0.1935,-0.1945,-0.1915,-0.1917,-0.1993,-0.2,-0.2007,-0.2072,-0.204,-0.2043,-0.2045,-0.2148,-0.2149,-0.215,0,0,0,0,0,0,-0.1737,-0.1746,-0.1827,-0.1796,-0.1808,-0.1857,-0.1872,-0.1881,-0.1924,-0.1946,-0.1955,-0.1953,-0.1993,-0.2003,-0.2058,-0.2074,-0.2044,-0.2047,-0.2147,-0.2148,-0.215,-0.2169,0,0,0,0,0,0,-0.1734,-0.1744,-0.1767,-0.1796,-0.1809,-0.1863,-0.1872,-0.1882,-0.1928,-0.1933,-0.1982,-0.1988,-0.1994,-0.2053,-0.2061,-0.2077,-0.205,-0.2145,-0.2147,-0.2149,-0.2168,-0.2171,-0.2175,0,0,0,0,0,-0.173,-0.1748,-0.1768,-0.1778,-0.1834,-0.1863,-0.1872,-0.1907,-0.193,-0.1949,-0.1988,-0.1989,-0.207,-0.2057,-0.2066,-0.2083,-0.2145,-0.2147,-0.2149,-0.2166,-0.2171,-0.2174,0,0,0,0,0,0,-0.1713,-0.1755,-0.1777,-0.1809,-0.1842,-0.1872,-0.1898,-0.1925,-0.1972,-0.1989,-0.201,-0.202,-0.2069,-0.2078,-0.2064,-0.2119,-0.2104,-0.2108,-0.2114,-0.2118,-0.2122,-0.2109,-0.2052,0,0,0,0,0,-0.1721,-0.1748,-0.1786,-0.1814,-0.1833,-0.1874,-0.1899,-0.1925,-0.1962,-0.1985,-0.202,-0.2055,-0.2079,-0.2103,-0.2126,-0.2166,-0.215,-0.218,-0.2183,-0.2186,-0.2182,-0.2175,-0.2177,-0.2157,-0.2157,-0.2157,0,0,-0.1723,-0.175,-0.1767,-0.1813,-0.1844,-0.1875,-0.1891,-0.1934,-0.1966,-0.1987,-0.2051,-0.2074,-0.2094,-0.2131,-0.2154,-0.2146,-0.2183,-0.2189,-0.2191,-0.2185,-0.2177,-0.2179,-0.218,-0.2159,-0.2158,-0.2158,0,0,-0.1727,-0.1766,-0.1789,-0.1819,-0.1871,-0.1895,-0.1914,-0.1965,-0.1997,-0.2056,-0.2072,-0.2105,-0.2162,-0.2166,-0.2177,-0.2216,-0.2202,-0.2231,-0.2242,-0.2236,-0.2237,-0.2237,-0.2214,-0.2213,-0.2233,-0.2233,-0.2233,0,-0.1733,-0.1766,-0.1799,-0.1828,-0.1858,-0.1906,-0.1938,-0.1973,-0.2039,-0.2063,-0.2081,-0.2151,-0.217,-0.2196,-0.2208,-0.2222,-0.2215,-0.2223,-0.2238,-0.2239,-0.2239,-0.2215,-0.2213,-0.2234,-0.2234,-0.2234,-0.2234,0,-0.1744,-0.1786,-0.1801,-0.1855,-0.189,-0.1925,-0.1974,-0.202,-0.2068,-0.2098,-0.2152,-0.2178,-0.2213,-0.2224,-0.2233,-0.2248,-0.224,-0.2241,-0.2223,-0.2242,-0.2216,-0.2214,-0.2236,-0.2236,-0.2235,-0.2235,0,0,-0.1712,-0.1795,-0.1804,-0.1839,-0.1911,-0.1936,-0.1993,-0.2046,-0.2084,-0.2141,-0.2178,-0.2218,-0.2234,-0.2246,-0.2258,-0.2256,-0.2251,-0.2257,-0.2256,-0.2225,-0.223,-0.2095,-0.2079,-0.2261,-0.2261,-0.2261,-0.2208,0,-0.1715,-0.177,-0.1813,-0.1873,-0.1907,-0.1969,-0.2014,-0.207,-0.2121,-0.2169,-0.2193,-0.2235,-0.2242,-0.2265,-0.2263,-0.2264,-0.2247,-0.2264,-0.2223,-0.2221,-0.2092,-0.2073,-0.2261,-0.2206,-0.2205,-0.2205,-0.2204,0,-0.1704,-0.1747,-0.1807,-0.189,-0.1911,-0.1956,-0.2035,-0.2083,-0.2149,-0.2188,-0.2226,-0.2253,-0.2271,-0.227,-0.226,-0.2276,-0.2251,-0.2239,-0.2236,-0.21,-0.2081,-0.2185,-0.22,-0.22,-0.22,-0.2201,-0.2201,0,-0.1651,-0.1738,-0.1789,-0.1819,-0.1918,-0.196,-0.2015,-0.2091,-0.2131,-0.22,-0.2231,-0.226,-0.2281,-0.2265,-0.2248,-0.2261,-0.2218,-0.2228,-0.2074,-0.2065,-0.2196,-0.2195,-0.2195,-0.2195,-0.2195,-0.2195,-0.2195,0,-0.1619,-0.1662,-0.1776,-0.1803,-0.1863,-0.1942,-0.2006,-0.2064,-0.2138,-0.2165,-0.2237,-0.2244,-0.2284,-0.227,-0.2244,-0.214,-0.221,-0.2057,-0.2035,-0.2205,-0.2207,-0.2193,-0.2194,-0.2193,-0.2194,-0.2194,-0.2194,0,-0.1547,-0.1625,-0.169,-0.1804,-0.1842,-0.1886,-0.1997,-0.2028,-0.2119,-0.2154,-0.2176,-0.2238,-0.2211,-0.2218,-0.2185,-0.2115,-0.2044,-0.1987,-0.2155,-0.2147,-0.1897,-0.19,-0.1802,-0.1797,-0.1793,-0.1789,-0.1786,0,-0.1511,-0.154,-0.1672,-0.1707,-0.1764,-0.1845,-0.1887,-0.2,-0.2025,-0.212,-0.211,-0.2136,-0.2152,-0.198,-0.202,-0.1937,-0.1916,-0.1869,-0.1886,-0.1864,-0.1854,-0.1864,-0.1872,-0.1778,-0.1777,-0.1776,-0.1775,0,-0.1434,-0.1499,-0.1549,-0.1622,-0.1682,-0.1736,-0.1806,-0.181,-0.1916,-0.2025,-0.1969,-0.1939,-0.1903,-0.1867,-0.1814,-0.1764,-0.1898,-0.1821,-0.1831,-0.1847,-0.1834,-0.1831,-0.1844,-0.1759,-0.1761,-0.1763,-0.1764,0,-0.1373,-0.1389,-0.1463,-0.1507,-0.1579,-0.1585,-0.1646,-0.1656,-0.1695,-0.1802,-0.1777,-0.1803,-0.187,-0.1775,-0.1729,-0.1665,-0.1644,-0.159,-0.1611,-0.1629,-0.1599,-0.156,-0.1359,0,0,0,0,0,-0.1301,-0.1299,-0.1334,-0.1372,-0.1436,-0.1468,-0.1564,-0.1625,-0.1733,-0.1637,-0.1698,-0.165,-0.1584,-0.1608,-0.1502,-0.1662,-0.1659,-0.1535,-0.1612,-0.1672,-0.169,-0.1672,0,0,0,0,0,0,-0.125,-0.1282,-0.1287,-0.1242,-0.1234,-0.128,-0.1328,-0.1407,-0.1363,-0.148,-0.1443,-0.154,-0.1495,-0.1597,-0.146,-0.1467,-0.1479,-0.1569,-0.1564,-0.1661,-0.1678,-0.1693,-0.168,0,0,0,0,0]},{"header":{"parameterUnit":"m.s-1","parameterCategory":2,"la1":30.2991,"la2":30.254,"lo1":-89.0895,"lo2":-89.0444,"dy":0.0017,"dx":0.0017,"nx":28,"ny":28,"refTime":"2025-01-27T03:00:00:Z","depth":"4","parameterNumber":3,"parameterNumberName":"V-component_of_CURRENTS"},"data":[0,0,0,0,0,0,0,0,0,0,0,0,0,0,0,0,0,0,0,0,0,0,0,0,0,0,0,0,0,0,0,0,0,0,0,0,0,0,0,0,0,0,0,0,0,0,0,0,0,0,0,0,0,0,0,0,0,0,-0.0212,-0.0211,0,-0.0164,-0.0163,-0.0163,-0.0122,-0.0122,-0.0122,-0.0121,-0.0046,-0.0044,-0.0042,0,0,0,0,0,0,0,0,0,0,0,0,0,-0.0239,-0.0239,-0.0212,-0.0211,-0.0211,-0.0164,-0.0163,-0.0162,-0.0122,-0.0122,-0.0121,-0.0121,-0.0046,-0.0044,-0.0042,0,0,0,0,0,0,0,0,0,0,0,0,0,-0.0212,-0.0239,-0.0212,-0.0186,-0.0183,-0.0164,-0.0163,-0.0162,-0.0122,-0.0122,-0.0121,-0.0121,-0.0047,-0.0045,-0.0042,-0.0037,0,0,-0.0034,-0.0033,0,0,0,0,0,0,0,0,-0.0213,-0.0211,-0.019,-0.0188,-0.0185,-0.0149,-0.0145,-0.0119,-0.0123,-0.0144,-0.0121,-0.0121,-0.0079,-0.0074,-0.0065,-0.0033,-0.003,-0.0034,-0.0033,-0.0031,-0.0031,0,0,0,0,0,0,0,-0.0215,-0.0212,-0.0192,-0.019,-0.0186,-0.0166,-0.0162,-0.014,-0.0114,-0.0142,-0.014,-0.0136,-0.0077,-0.0067,-0.0063,-0.0029,-0.0034,-0.0032,-0.003,-0.0029,0.0007,0.0006,0,0,0,0,0,0,-0.0225,-0.0214,-0.0193,-0.019,-0.0199,-0.0167,-0.0162,-0.016,-0.0115,-0.0108,-0.0137,-0.0134,-0.0072,-0.0066,-0.006,-0.0052,-0.0031,-0.0029,-0.0028,0.0007,0.0006,0.0006,0,0,0,0,0,0,-0.0226,-0.0224,-0.0195,-0.0202,-0.0197,-0.0167,-0.0166,-0.016,-0.0151,-0.0111,-0.0103,-0.0135,-0.0071,-0.0063,-0.0045,-0.0048,-0.0028,-0.0026,0.0008,0.0007,0.0006,-0.0035,0,0,0,0,0,0,-0.0227,-0.0225,-0.0231,-0.0203,-0.0197,-0.0191,-0.0166,-0.0159,-0.015,-0.0147,-0.0106,-0.0099,-0.007,-0.005,-0.0043,-0.0045,-0.0024,0.0009,0.0007,0.0006,-0.0033,-0.0037,-0.0041,0,0,0,0,0,-0.0228,-0.024,-0.0231,-0.0229,-0.0205,-0.0192,-0.0187,-0.0163,-0.0151,-0.0153,-0.0125,-0.01,-0.0052,-0.0048,-0.004,-0.0041,0.0009,0.0008,0.0007,-0.0031,-0.0036,-0.0041,0,0,0,0,0,0,-0.0256,-0.0236,-0.0226,-0.0231,-0.0216,-0.0186,-0.0187,-0.0169,-0.0149,-0.0146,-0.0106,-0.0096,-0.0084,-0.006,-0.0057,-0.0036,-0.0018,-0.0018,-0.0049,-0.0054,-0.0058,-0.0059,-0.0022,0,0,0,0,0,-0.0266,-0.0269,-0.0245,-0.0251,-0.0245,-0.0218,-0.021,-0.0194,-0.0171,-0.0162,-0.0134,-0.0106,-0.0084,-0.0067,-0.0048,-0.0033,0.0004,-0.003,-0.0034,-0.0037,-0.0034,0.0019,0.0021,0.0002,0.0002,0.0002,0,0,-0.0279,-0.0269,-0.0271,-0.0257,-0.0243,-0.0242,-0.0212,-0.0206,-0.0202,-0.0157,-0.0147,-0.0122,-0.0085,-0.0071,-0.0063,-0.0049,-0.0014,-0.0039,-0.0042,-0.0036,0.0018,0.002,0.0022,0.0001,0.0001,0.0001,0,0,-0.0307,-0.0298,-0.0309,-0.0299,-0.0284,-0.0266,-0.0267,-0.0241,-0.0226,-0.0214,-0.0182,-0.0156,-0.0128,-0.0095,-0.0075,-0.0089,-0.0042,-0.0089,-0.01,-0.0049,-0.0047,-0.0044,-0.0001,0.0006,-0.0084,-0.0084,-0.0084,0,-0.0325,-0.0332,-0.0311,-0.0317,-0.0313,-0.028,-0.0288,-0.027,-0.0242,-0.0227,-0.022,-0.0164,-0.0136,-0.0101,-0.0106,-0.0096,-0.0063,-0.0084,-0.0053,-0.0049,-0.0046,-0.0002,0.0006,-0.0086,-0.0086,-0.0086,-0.0086,0,-0.0355,-0.0362,-0.0368,-0.0364,-0.0358,-0.0361,-0.0333,-0.0323,-0.0303,-0.0276,-0.0245,-0.0203,-0.0166,-0.0156,-0.0134,-0.0098,-0.0083,-0.0069,-0.0039,-0.0046,-0.0,0.0009,-0.0089,-0.0089,-0.0088,-0.0087,0,0,-0.0389,-0.039,-0.0393,-0.0399,-0.0383,-0.0381,-0.0374,-0.035,-0.0339,-0.0306,-0.0282,-0.024,-0.0208,-0.0185,-0.015,-0.0103,-0.0054,-0.0079,-0.0076,-0.0033,0.0055,0.0034,0.0042,-0.0033,-0.0032,-0.0031,0.0075,0,-0.0418,-0.0446,-0.0432,-0.0454,-0.0463,-0.0432,-0.0428,-0.0401,-0.037,-0.034,-0.0279,-0.0249,-0.0221,-0.0203,-0.0153,-0.0082,-0.0031,-0.0084,0.0053,0.0057,0.0043,0.0052,-0.0026,0.0082,0.0085,0.0086,0.0087,0,-0.0449,-0.0463,-0.0494,-0.0497,-0.0497,-0.0505,-0.0486,-0.0475,-0.0418,-0.0392,-0.034,-0.029,-0.022,-0.0198,-0.0067,-0.0104,-0.003,0.003,0.0036,0.0039,0.0053,0.0093,0.0105,0.0103,0.0102,0.0101,0.01,0,-0.0484,-0.0503,-0.0531,-0.0534,-0.0533,-0.054,-0.0535,-0.0495,-0.0484,-0.0421,-0.0401,-0.0309,-0.0264,-0.0159,-0.0043,-0.005,0.0105,0.0113,0.0169,0.0168,0.0175,0.0171,0.0214,0.0214,0.0213,0.0213,0.0213,0,-0.0514,-0.0537,-0.0556,-0.0572,-0.0604,-0.0584,-0.0599,-0.0575,-0.0537,-0.0521,-0.0434,-0.0396,-0.0251,-0.0147,-0.0042,0.0088,0.011,0.0172,0.0197,0.0153,0.0145,0.0182,0.0177,0.0217,0.0216,0.0215,0.0215,0,-0.0543,-0.0555,-0.0593,-0.0613,-0.0625,-0.0648,-0.0658,-0.066,-0.0616,-0.0591,-0.0573,-0.0452,-0.0316,-0.0169,0.0011,0.0082,0.0213,0.0257,0.0197,0.0216,0.0244,0.0235,0.0329,0.0329,0.0329,0.033,0.033,0,-0.0558,-0.0582,-0.0635,-0.0669,-0.0685,-0.0716,-0.0737,-0.0709,-0.0703,-0.0624,-0.061,-0.0475,-0.0383,-0.0139,0.0008,0.0214,0.0238,0.0302,0.0274,0.0242,0.0257,0.0248,0.024,0.033,0.033,0.033,0.033,0,-0.0585,-0.0611,-0.0644,-0.0719,-0.076,-0.0796,-0.0816,-0.0816,-0.0769,-0.0736,-0.0625,-0.0488,-0.0333,-0.0144,0.0018,0.0162,0.0255,0.0304,0.0304,0.0279,0.0244,0.0257,0.0248,0.0331,0.0331,0.0331,0.0331,0,-0.0605,-0.0642,-0.0696,-0.0754,-0.0816,-0.0852,-0.0858,-0.0833,-0.0812,-0.0715,-0.068,-0.0498,-0.0386,-0.017,-0.0023,0.0117,0.0147,0.0181,0.0188,0.0189,0.0109,0.0042,0.0093,0,0,0,0,0,-0.0616,-0.066,-0.0725,-0.0789,-0.0852,-0.0881,-0.0898,-0.0888,-0.0845,-0.0775,-0.0721,-0.0571,-0.0332,-0.0221,-0.0083,-0.0036,0.0156,0.0126,0.0194,0.0334,0.0333,0.026,0,0,0,0,0,0,-0.0625,-0.069,-0.0724,-0.0803,-0.0851,-0.0908,-0.092,-0.0892,-0.0837,-0.0774,-0.0641,-0.0557,-0.0321,-0.0411,-0.0086,-0.0043,0.0013,0.0246,0.0248,0.0334,0.0334,0.0333,0.0257,0,0,0,0,0]}]]